Flushing, NY

6:36 PM EST on December 04, 2016 (GMT -0500)
La Guardia

Weather History for KLGA - November, 2012

Change the Weather History Date:

Saturday, November 17, 2012

  Actual Average Record
Temperature  
Mean Temperature 46 °F 48 °F  
Max Temperature 52 °F 54 °F 72 °F (1953)
Min Temperature 40 °F 41 °F 27 °F (1959)
Degree Days  
Heating Degree Days 19 17  
Month to date heating degree days 316 250  
Since 1 July heating degree days 498 522  
Cooling Degree Days 0 0  
Month to date cooling degree days 0 0  
Year to date cooling degree days 1511 1213  
Moisture  
Dew Point 30 °F    
Average Humidity 53    
Maximum Humidity 62    
Minimum Humidity 44    
Precipitation  
Precipitation 0.00 in 0.12 in 1.49 in (2014)
Month to date precipitation 0.89 1.87  
Year to date precipitation 31.95 39.63  
Snow  
Snow 0.00 in 0.00 in 0.20 in (1980)
Month to date snowfall 1.1 0.0  
Since 1 July snowfall 1.1 0.0  
Snow Depth 0.00 in    
Sea Level Pressure  
Sea Level Pressure 30.57 in    
Wind  
Wind Speed 8 mph (NNE)    
Max Wind Speed 15 mph    
Max Gust Speed 21 mph    
Visibility 10 miles    
Events      
T = Trace of Precipitation, MM = Missing Value Source: NWS Daily Summary

Daily Weather History Graph

Daily Weather History Graph

Search for Another Location

Airport or City:

Trip Planner

Search our weather history database for the weather conditions in past years. The results will help you decide how hot, cold, wet, or windy it might be!

Date:

Astronomy

Nov. 17, 2012 Rise Set
Actual Time 6:45 AM EST 4:35 PM EST
Civil Twilight 6:15 AM EST 5:04 PM EST
Nautical Twilight 5:42 AM EST 5:38 PM EST
Astronomical Twilight 5:10 AM EST 6:10 PM EST
Moon 10:28 AM EST (11/17) 8:42 PM EST (11/17)
Length of Visible Light 10h 49m
Length of Day
9h 50m
Waxing Crescent, 20% of the Moon is Illuminated
Nov 17
Waxing Crescent
Nov 20
First Quarter
Nov 28
Full
Dec 6
Last Quarter
Dec 13
New

Hourly Weather History & Observations

Time (EST) Temp. Windchill Dew Point Humidity Pressure Visibility Wind Dir Wind Speed Gust Speed Precip Events Conditions
12:51 AM 42.1 °F 36.1 °F 27.0 °F 55% 30.44 in 10.0 mi North 10.4 mph - N/A   Clear
1:51 AM 42.8 °F 38.6 °F 26.6 °F 53% 30.45 in 10.0 mi North 6.9 mph - N/A   Partly Cloudy
2:51 AM 41.0 °F 34.7 °F 26.1 °F 55% 30.46 in 10.0 mi North 10.4 mph - N/A   Clear
3:51 AM 41.0 °F 36.4 °F 26.1 °F 55% 30.48 in 10.0 mi North 6.9 mph - N/A   Clear
4:51 AM 41.0 °F 34.7 °F 27.0 °F 57% 30.50 in 10.0 mi North 10.4 mph - N/A   Clear
5:51 AM 39.9 °F 34.5 °F 27.0 °F 60% 30.53 in 10.0 mi North 8.1 mph - N/A   Clear
6:51 AM 39.9 °F 34.5 °F 27.0 °F 60% 30.55 in 10.0 mi North 8.1 mph - N/A   Clear
7:51 AM 41.0 °F 35.2 °F 28.9 °F 62% 30.58 in 10.0 mi North 9.2 mph - N/A   Clear
8:51 AM 43.0 °F 37.7 °F 30.0 °F 60% 30.59 in 10.0 mi NNE 9.2 mph - N/A   Clear
9:51 AM 46.0 °F 39.9 °F 32.0 °F 58% 30.61 in 10.0 mi NE 13.8 mph - N/A   Clear
10:51 AM 48.2 °F - 32.0 °F 54% 30.61 in 10.0 mi NE 12.7 mph - N/A   Clear
11:51 AM 48.9 °F - 32.0 °F 52% 30.59 in 10.0 mi ENE 10.4 mph 18.4 mph N/A   Clear
12:51 PM 51.1 °F - 32.0 °F 48% 30.58 in 10.0 mi Variable 6.9 mph - N/A   Clear
1:51 PM 52.0 °F - 30.9 °F 45% 30.57 in 10.0 mi East 4.6 mph - N/A   Clear
2:51 PM 52.0 °F - 30.9 °F 45% 30.57 in 10.0 mi ENE 6.9 mph - N/A   Clear
3:51 PM 51.1 °F - 32.0 °F 48% 30.58 in 10.0 mi ENE 3.5 mph - N/A   Clear
4:51 PM 51.8 °F - 30.2 °F 44% 30.60 in 10.0 mi Calm Calm - N/A   Partly Cloudy
5:51 PM 48.9 °F - 33.1 °F 54% 30.61 in 10.0 mi North 4.6 mph - N/A   Clear
6:51 PM 48.9 °F - 33.1 °F 54% 30.61 in 10.0 mi North 4.6 mph - N/A   Clear
7:51 PM 48.0 °F - 33.1 °F 56% 30.62 in 10.0 mi NNE 5.8 mph - N/A   Clear
8:51 PM 46.9 °F - 32.0 °F 56% 30.61 in 10.0 mi North 9.2 mph - N/A   Clear
9:51 PM 46.0 °F 42.5 °F 30.0 °F 54% 30.62 in 10.0 mi NNE 6.9 mph - N/A   Clear
10:51 PM 44.1 °F 40.1 °F 30.0 °F 58% 30.63 in 10.0 mi NNE 6.9 mph - N/A   Clear
11:51 PM 44.1 °F 39.0 °F 34.0 °F 68% 30.63 in 10.0 mi NE 9.2 mph - N/A   Clear